Knox, IN

9:51 PM CDT on May 22, 2017 (GMT -0500)
Starke County

Weather History for KOXI - June, 2013

Change the Weather History Date:

Friday, June 14, 2013

  Actual Average (KRCR) Record (KRCR)
Temperature  
Mean Temperature 64 °F -  
Max Temperature 76 °F 80 °F 86 °F (2015)
Min Temperature 51 °F 59 °F 46 °F (2014)
Degree Days  
Heating Degree Days 2    
Growing Degree Days 14 (Base 50)    
Moisture  
Dew Point 56 °F    
Average Humidity 79    
Maximum Humidity 100    
Minimum Humidity 45    
Precipitation  
Precipitation 0.00 in - - ()
Sea Level Pressure  
Sea Level Pressure 30.05 in    
Wind  
Wind Speed 5 mph (North)    
Max Wind Speed 12 mph    
Max Gust Speed -    
Visibility 10 miles    
Events      
Averages and records for this station are not official NWS values.
T = Trace of Precipitation, MM = Missing Value Source: NWS Daily Summary

Daily Weather History Graph

Daily Weather History Graph

Search for Another Location

Airport or City:

Trip Planner

Search our weather history database for the weather conditions in past years. The results will help you decide how hot, cold, wet, or windy it might be!

Date:

Astronomy

Jun. 14, 2013 Rise Set
Actual Time 5:12 AM CDT 8:21 PM CDT
Civil Twilight 4:38 AM CDT 8:55 PM CDT
Nautical Twilight 3:55 AM CDT 9:38 PM CDT
Astronomical Twilight 3:04 AM CDT 10:30 PM CDT
Moon 10:50 AM CDT (6/14) 11:53 PM CDT (6/14)
Length of Visible Light 16h 16m
Length of Day
15h 08m
Waxing Crescent, 30% of the Moon is Illuminated
Jun 14
Waxing Crescent
Jun 16
First Quarter
Jun 23
Full
Jun 29
Last Quarter
Jul 8
New

Hourly Weather History & Observations

Time (CDT) Temp. Dew Point Humidity Pressure Visibility Wind Dir Wind Speed Gust Speed Precip Events Conditions
12:15 AM 55.6 °F 54.1 °F 95% 30.01 in 10.0 mi NNW 6.9 mph - N/A   Clear
12:35 AM 55.2 °F 53.4 °F 94% 30.00 in 10.0 mi North 8.1 mph - N/A   Clear
12:55 AM 54.9 °F 53.1 °F 94% 30.00 in 10.0 mi North 6.9 mph - N/A   Clear
1:15 AM 54.1 °F 52.9 °F 95% 30.01 in 10.0 mi North 8.1 mph - N/A   Clear
1:35 AM 53.8 °F 52.9 °F 97% 30.01 in 10.0 mi North 6.9 mph - N/A   Clear
1:55 AM 53.8 °F 53.2 °F 98% 30.00 in 10.0 mi NW 5.8 mph - N/A   Clear
2:15 AM 53.4 °F 53.1 °F 99% 30.00 in 10.0 mi North 4.6 mph - N/A   Clear
2:35 AM 52.9 °F 52.7 °F 99% 30.01 in 10.0 mi NW 3.5 mph - N/A   Clear
2:55 AM 52.9 °F 52.7 °F 99% 30.01 in 10.0 mi NNW 5.8 mph - N/A   Clear
3:15 AM 52.7 °F 52.3 °F 99% 30.01 in 10.0 mi NNW 5.8 mph - N/A   Clear
3:35 AM 52.3 °F 52.2 °F 99% 30.01 in 10.0 mi North 4.6 mph - N/A   Clear
3:55 AM 51.8 °F 51.8 °F 100% 30.01 in 10.0 mi North 5.8 mph - N/A   Clear
4:15 AM 52.0 °F 52.0 °F 100% 30.01 in 10.0 mi NNW 3.5 mph - N/A   Clear
4:35 AM 51.6 °F 51.4 °F 99% 30.01 in 10.0 mi North 4.6 mph - N/A   Clear
4:55 AM 52.2 °F 52.0 °F 99% 30.03 in 10.0 mi NW 3.5 mph - N/A   Clear
5:15 AM 52.3 °F 52.2 °F 99% 30.04 in 10.0 mi WNW 4.6 mph - N/A   Clear
5:35 AM 52.3 °F 52.2 °F 99% 30.04 in 10.0 mi NNW 3.5 mph - N/A   Clear
5:55 AM 51.8 °F 51.8 °F 100% 30.05 in 10.0 mi North 3.5 mph - N/A   Clear
6:15 AM 52.7 °F 52.7 °F 100% 30.06 in 10.0 mi North 4.6 mph - N/A   Clear
6:35 AM 54.3 °F 54.1 °F 99% 30.05 in 10.0 mi NNE 6.9 mph - N/A   Clear
6:55 AM 55.8 °F 55.2 °F 98% 30.05 in 10.0 mi NNE 6.9 mph - N/A   Clear
7:15 AM 57.0 °F 55.8 °F 96% 30.07 in 10.0 mi North 4.6 mph - N/A   Clear
7:35 AM 58.1 °F 56.3 °F 94% 30.08 in 10.0 mi NNW 5.8 mph - N/A   Clear
7:55 AM 59.0 °F 56.8 °F 93% 30.10 in 10.0 mi NNW 4.6 mph - N/A   Clear
8:15 AM 60.3 °F 57.4 °F 90% 30.10 in 10.0 mi NNE 5.8 mph - N/A   Clear
8:35 AM 61.5 °F 57.9 °F 88% 30.10 in 10.0 mi NNE 5.8 mph - N/A   Clear
8:55 AM 62.4 °F 58.5 °F 87% 30.10 in 10.0 mi Calm Calm - N/A   Clear
9:15 AM 63.5 °F 58.6 °F 84% 30.10 in 10.0 mi NE 3.5 mph - N/A   Clear
9:35 AM 64.6 °F 59.4 °F 83% 30.11 in 10.0 mi NE 5.8 mph - N/A   Clear
9:55 AM 65.8 °F 59.9 °F 81% 30.11 in 10.0 mi NNE 5.8 mph - N/A   Clear
10:15 AM 66.9 °F 60.1 °F 79% 30.12 in 10.0 mi Calm Calm - N/A   Clear
10:35 AM 67.8 °F 61.3 °F 80% 30.11 in 10.0 mi Calm Calm - N/A   Clear
10:55 AM 68.7 °F 60.8 °F 76% 30.11 in 10.0 mi Calm Calm - N/A   Clear
11:15 AM 69.8 °F 61.5 °F 75% 30.10 in 10.0 mi NNW 4.6 mph - N/A   Scattered Clouds
11:35 AM 71.1 °F 61.5 °F 72% 30.09 in 10.0 mi ENE 6.9 mph - N/A   Scattered Clouds
11:55 AM 71.8 °F 59.4 °F 65% 30.09 in 10.0 mi NE 3.5 mph - N/A   Scattered Clouds
12:15 PM 72.0 °F 59.4 °F 64% 30.08 in 10.0 mi NNW 4.6 mph - N/A   Scattered Clouds
12:35 PM 72.1 °F 58.5 °F 62% 30.08 in 10.0 mi NE 8.1 mph - N/A   Scattered Clouds
12:55 PM 72.7 °F 58.1 °F 60% 30.08 in 10.0 mi Calm Calm - N/A   Scattered Clouds
1:15 PM 73.9 °F 57.7 °F 57% 30.08 in 10.0 mi NNE 3.5 mph - N/A   Scattered Clouds
1:35 PM 74.1 °F 57.2 °F 55% 30.08 in 10.0 mi North 4.6 mph - N/A   Scattered Clouds
1:55 PM 74.7 °F 57.9 °F 56% 30.09 in 10.0 mi NNW 6.9 mph - N/A   Clear
2:15 PM 74.1 °F 56.5 °F 54% 30.08 in 10.0 mi NNE 3.5 mph - N/A   Clear
2:35 PM 74.7 °F 55.2 °F 51% 30.08 in 10.0 mi West 4.6 mph - N/A   Clear
2:55 PM 75.6 °F 56.5 °F 51% 30.07 in 10.0 mi NE 4.6 mph - N/A   Clear
3:15 PM 76.3 °F 55.4 °F 48% 30.07 in 10.0 mi Calm Calm - N/A   Clear
3:35 PM 76.3 °F 54.1 °F 46% 30.06 in 10.0 mi WSW 3.5 mph - N/A   Clear
3:55 PM 76.5 °F 54.0 °F 46% 30.06 in 10.0 mi Calm Calm - N/A   Clear
4:15 PM 76.5 °F 53.4 °F 45% 30.06 in 10.0 mi Calm Calm - N/A   Scattered Clouds
4:35 PM 74.7 °F 58.8 °F 58% 30.06 in 10.0 mi NNW 11.5 mph - N/A   Scattered Clouds
4:55 PM 73.8 °F 59.9 °F 62% 30.06 in 10.0 mi NNW 11.5 mph - N/A   Clear
5:15 PM 73.4 °F 59.7 °F 62% 30.05 in 10.0 mi NNW 9.2 mph - N/A   Clear
5:35 PM 73.0 °F 58.3 °F 60% 30.05 in 10.0 mi North 10.4 mph - N/A   Clear
5:55 PM 72.5 °F 57.4 °F 59% 30.05 in 10.0 mi North 8.1 mph - N/A   Clear
6:15 PM 72.0 °F 57.0 °F 59% 30.04 in 10.0 mi North 8.1 mph - N/A   Clear
6:35 PM 71.4 °F 57.0 °F 60% 30.05 in 10.0 mi North 6.9 mph - N/A   Clear
6:55 PM 70.5 °F 57.0 °F 62% 30.04 in 10.0 mi NNE 8.1 mph - N/A   Clear
7:15 PM 69.6 °F 56.7 °F 63% 30.04 in 10.0 mi NNE 6.9 mph - N/A   Clear
7:35 PM 68.7 °F 57.0 °F 66% 30.04 in 10.0 mi NNE 5.8 mph - N/A   Clear
7:55 PM 67.5 °F 56.7 °F 68% 30.03 in 10.0 mi NE 4.6 mph - N/A   Clear
8:15 PM 66.2 °F 56.7 °F 71% 30.03 in 10.0 mi ENE 3.5 mph - N/A   Clear
8:35 PM 65.1 °F 56.5 °F 74% 30.03 in 10.0 mi NE 3.5 mph - N/A   Clear
8:55 PM 64.2 °F 57.2 °F 78% 30.03 in 10.0 mi NE 3.5 mph - N/A   Clear
9:15 PM 63.5 °F 58.3 °F 83% 30.03 in 10.0 mi Calm Calm - N/A   Clear
10:15 PM - - N/A% 30.05 in - Calm Calm - N/A   Unknown
10:35 PM 61.9 °F 60.4 °F 95% 30.05 in 10.0 mi Calm Calm - N/A   Clear
10:55 PM 61.9 °F 60.1 °F 94% 30.05 in 10.0 mi Calm Calm - N/A   Clear
11:15 PM 60.8 °F 59.7 °F 96% 30.05 in 10.0 mi Calm Calm - N/A   Clear
11:35 PM 60.1 °F 59.5 °F 98% 30.05 in 10.0 mi Calm Calm - N/A   Clear
11:55 PM 59.5 °F 59.2 °F 99% 30.05 in 10.0 mi Calm Calm - N/A   Clear